Weather History for KBWG - January, 2013

Change the Weather History Date:

Sunday, January 6, 2013

  Actual Average Record
Temperature  
Mean Temperature 38 °F 36 °F  
Max Temperature 48 °F 45 °F 72 °F (1946)
Min Temperature 27 °F 26 °F -12 °F (1884)
Degree Days  
Heating Degree Days 27 30  
Month to date heating degree days 183 175  
Since 1 July heating degree days 1608 1759  
Cooling Degree Days 0 0  
Month to date cooling degree days 0 0  
Year to date cooling degree days 0 0  
Moisture  
Dew Point 28 °F    
Average Humidity 67    
Maximum Humidity 76    
Minimum Humidity 57    
Precipitation  
Precipitation 0.00 in 0.12 in 1.72 in (1991)
Month to date precipitation 0.08 0.72  
Year to date precipitation 0.08 0.72  
Snow  
Snow 0.00 in 0.10 in 10.00 in (1910)
Month to date snowfall 0.0 0.5  
Since 1 July snowfall T 1.7  
Snow Depth 0.00 in    
Sea Level Pressure  
Sea Level Pressure 30.26 in    
Wind  
Wind Speed 8 mph (West)    
Max Wind Speed 20 mph    
Max Gust Speed 25 mph    
Visibility 10 miles    
Events      
T = Trace of Precipitation, MM = Missing Value Source: NWS Daily Summary

Daily Weather History Graph

Daily Weather History Graph

Search for Another Location

Airport or City:

Trip Planner

Search our weather history database for the weather conditions in past years. The results will help you decide how hot, cold, wet, or windy it might be!

Date:

Astronomy

Jan. 06, 2013 Rise Set
Actual Time 6:59 AM CST 4:44 PM CST
Civil Twilight 6:30 AM CST 5:13 PM CST
Nautical Twilight 5:58 AM CST 5:45 PM CST
Astronomical Twilight 5:26 AM CST 6:16 PM CST
Moon 1:16 AM CST (1/6) 12:08 PM CST (1/6)
Length of Visible Light 10h 42m
Length of Day
9h 45m
Waning Crescent, 33% of the Moon is Illuminated
Jan 6
Waning Crescent
Jan 11
New
Jan 18
First Quarter
Jan 26
Full
Feb 3
Last Quarter

Hourly Weather History & Observations

Time (CST) Temp. Windchill Dew Point Humidity Pressure Visibility Wind Dir Wind Speed Gust Speed Precip Events Conditions
12:53 AM 41.0 °F 36.4 °F 28.0 °F 60% 30.22 in 10.0 mi SW 6.9 mph - N/A   Mostly Cloudy
1:53 AM 39.0 °F 35.7 °F 28.0 °F 65% 30.22 in 10.0 mi SW 4.6 mph - N/A   Scattered Clouds
2:53 AM 37.0 °F 31.6 °F 28.0 °F 70% 30.21 in 10.0 mi SW 6.9 mph - N/A   Mostly Cloudy
4:53 AM 37.9 °F 32.7 °F 30.0 °F 73% 30.18 in 10.0 mi SSW 6.9 mph - N/A   Overcast
6:53 AM 39.0 °F 33.4 °F 32.0 °F 76% 30.20 in 10.0 mi SW 8.1 mph - N/A   Overcast
7:53 AM 39.0 °F 32.3 °F 32.0 °F 76% 30.20 in 10.0 mi SSW 10.4 mph - N/A   Mostly Cloudy
8:53 AM 41.0 °F 34.7 °F 34.0 °F 76% 30.20 in 10.0 mi SW 10.4 mph - N/A   Clear
10:53 AM 46.0 °F 39.6 °F 34.0 °F 63% 30.19 in 10.0 mi West 15.0 mph 21.9 mph N/A   Mostly Cloudy
11:53 AM 46.9 °F - 33.1 °F 59% 30.16 in 10.0 mi WSW 17.3 mph 24.2 mph N/A   Mostly Cloudy
12:00 PM 48.2 °F - 33.8 °F 58% 30.15 in 10.0 mi SW 15.0 mph 23.0 mph N/A   Scattered Clouds
12:08 PM 48.2 °F - 33.8 °F 58% 30.15 in 10.0 mi WSW 13.8 mph 25.3 mph N/A   Mostly Cloudy
12:22 PM 46.4 °F 40.4 °F 32.0 °F 57% 30.15 in 10.0 mi West 13.8 mph 21.9 mph N/A   Mostly Cloudy
12:53 PM 45.0 °F 38.2 °F 30.9 °F 58% 30.17 in 10.0 mi West 15.0 mph - N/A   Overcast
1:53 PM 44.1 °F 37.4 °F 30.0 °F 58% 30.19 in 10.0 mi West 13.8 mph 20.7 mph N/A   Overcast
2:53 PM 43.0 °F 37.7 °F 28.9 °F 58% 30.23 in 10.0 mi NNW 9.2 mph 17.3 mph N/A   Overcast
3:53 PM 39.9 °F 33.9 °F 28.0 °F 63% 30.27 in 10.0 mi NW 9.2 mph - N/A   Overcast
4:53 PM 37.0 °F 30.4 °F 26.1 °F 65% 30.30 in 10.0 mi NW 9.2 mph - N/A   Mostly Cloudy
5:53 PM 35.1 °F 27.9 °F 23.0 °F 61% 30.34 in 10.0 mi NNW 9.2 mph 18.4 mph N/A   Mostly Cloudy
6:53 PM 35.1 °F 28.6 °F 24.1 °F 64% 30.37 in 10.0 mi NNW 8.1 mph - N/A   Overcast
7:53 PM 34.0 °F 28.8 °F 23.0 °F 64% 30.38 in 10.0 mi NW 5.8 mph - N/A   Mostly Cloudy
8:53 PM 32.0 °F 28.7 °F 23.0 °F 69% 30.40 in 10.0 mi North 3.5 mph - N/A   Mostly Cloudy
9:15 PM 30.2 °F - 23.0 °F 75% 30.38 in 10.0 mi Calm Calm - N/A   Scattered Clouds
9:53 PM 30.9 °F 26.2 °F 21.9 °F 69% 30.41 in 9.0 mi North 4.6 mph - N/A   Clear
10:53 PM 28.9 °F - 21.0 °F 72% 30.42 in 8.0 mi Calm Calm - N/A   Clear
11:53 PM 28.0 °F - 21.0 °F 75% 30.42 in 8.0 mi Calm Calm - N/A   Clear